TimeEEST,TemperatureF,Dew PointF,Humidity,Sea Level PressureIn,VisibilityMPH,Wind Direction,Wind SpeedMPH,Gust SpeedMPH,PrecipitationIn,Events,Conditions,WindDirDegrees,DateUTC
12:20 AM,77.0,68.0,74,29.71,6.2,NE,10.4,-,N/A,,Scattered Clouds,50,2013-06-29 21:20:00
12:50 AM,77.0,68.0,74,29.71,6.2,NE,8.1,-,N/A,,Scattered Clouds,50,2013-06-29 21:50:00
1:20 AM,77.0,68.0,74,29.71,6.2,ENE,9.2,-,N/A,,Scattered Clouds,60,2013-06-29 22:20:00
1:50 AM,75.2,68.0,78,29.71,6.2,NE,9.2,-,N/A,,Scattered Clouds,50,2013-06-29 22:50:00
2:20 AM,75.2,68.0,78,29.68,6.2,Variable,6.9,-,N/A,,Scattered Clouds,0,2013-06-29 23:20:00
2:50 AM,75.2,68.0,78,29.68,6.2,ENE,4.6,-,N/A,,Scattered Clouds,60,2013-06-29 23:50:00
3:00 AM,76,68,69,29.70,6,ENE,4.6,,,,Partly Cloudy,60,2013-06-30 00:00:00
3:20 AM,75.2,68.0,78,29.68,6.2,ENE,6.9,-,N/A,,Scattered Clouds,70,2013-06-30 00:20:00
3:50 AM,75.2,68.0,78,29.68,6.2,ENE,4.6,-,N/A,,Scattered Clouds,70,2013-06-30 00:50:00
4:20 AM,75.2,68.0,78,29.68,6.2,ENE,6.9,-,N/A,,Scattered Clouds,70,2013-06-30 01:20:00
4:50 AM,75.2,68.0,78,29.65,6.2,East,5.8,-,N/A,,Scattered Clouds,90,2013-06-30 01:50:00
5:20 AM,75.2,68.0,78,29.68,6.2,East,4.6,-,N/A,,Scattered Clouds,100,2013-06-30 02:20:00
5:50 AM,75.2,68.0,78,29.65,6.2,East,4.6,-,N/A,,Scattered Clouds,80,2013-06-30 02:50:00
6:20 AM,73.4,68.0,83,29.65,6.2,SE,5.8,-,N/A,,Mostly Cloudy,140,2013-06-30 03:20:00
6:50 AM,73.4,69.8,88,29.65,6.2,SSE,5.8,-,N/A,,Mostly Cloudy,160,2013-06-30 03:50:00
7:20 AM,73.4,71.6,94,29.65,4.3,South,9.2,-,N/A,,Mostly Cloudy,170,2013-06-30 04:20:00
7:50 AM,71.6,69.8,94,29.65,4.3,SSW,11.5,-,N/A,,Mostly Cloudy,210,2013-06-30 04:50:00
8:20 AM,73.4,71.6,94,29.65,4.3,WSW,9.2,-,N/A,,Mostly Cloudy,240,2013-06-30 05:20:00
8:50 AM,75.2,69.8,83,29.68,6.2,WSW,6.9,-,N/A,,Mostly Cloudy,250,2013-06-30 05:50:00
9:00 AM,75,69,76,29.68,6,WSW,6.9,,,,Mostly Cloudy,250,2013-06-30 06:00:00
9:20 AM,73.4,62.6,69,29.68,6.2,NNW,15.0,-,N/A,,Mostly Cloudy,330,2013-06-30 06:20:00
9:50 AM,73.4,62.6,69,29.71,6.2,NNW,19.6,-,N/A,,Mostly Cloudy,330,2013-06-30 06:50:00
10:20 AM,73.4,60.8,65,29.71,6.2,NNW,20.7,-,N/A,,Mostly Cloudy,340,2013-06-30 07:20:00
10:50 AM,75.2,60.8,61,29.71,6.2,NNW,18.4,-,N/A,,Scattered Clouds,330,2013-06-30 07:50:00
11:20 AM,75.2,60.8,61,29.71,6.2,NNW,13.8,-,N/A,,Scattered Clouds,340,2013-06-30 08:20:00
11:50 AM,77.0,60.8,57,29.71,6.2,NE,3.5,-,N/A,,Scattered Clouds,50,2013-06-30 08:50:00
12:20 PM,77.0,60.8,57,29.71,6.2,SSW,5.8,-,N/A,,Scattered Clouds,200,2013-06-30 09:20:00
12:50 PM,77.0,62.6,61,29.71,6.2,South,9.2,-,N/A,,Scattered Clouds,180,2013-06-30 09:50:00
1:20 PM,77.0,62.6,61,29.71,6.2,South,10.4,-,N/A,,Scattered Clouds,180,2013-06-30 10:20:00
1:50 PM,77.0,62.6,61,29.71,6.2,SSW,10.4,-,N/A,,Scattered Clouds,200,2013-06-30 10:50:00
2:20 PM,75.2,62.6,65,29.71,6.2,SW,12.7,-,N/A,,Scattered Clouds,220,2013-06-30 11:20:00
3:00 PM,76,64,57,29.71,6,SW,11.5,,,,Partly Cloudy,220,2013-06-30 12:00:00
3:20 PM,75.2,62.6,65,29.71,6.2,SSW,10.4,-,N/A,,Scattered Clouds,210,2013-06-30 12:20:00
3:50 PM,73.4,62.6,69,29.71,-9999.0,SW,9.2,-,N/A,,Clear,230,2013-06-30 12:50:00
4:20 PM,73.4,62.6,69,29.68,6.2,WSW,9.2,-,N/A,,Scattered Clouds,240,2013-06-30 13:20:00
4:50 PM,75.2,62.6,65,29.71,6.2,WSW,10.4,-,N/A,,Scattered Clouds,240,2013-06-30 13:50:00
5:20 PM,73.4,62.6,69,29.68,6.2,SW,11.5,-,N/A,,Scattered Clouds,230,2013-06-30 14:20:00
5:50 PM,73.4,62.6,69,29.71,6.2,SW,10.4,-,N/A,,Scattered Clouds,230,2013-06-30 14:50:00
6:20 PM,75.2,62.6,65,29.68,6.2,SW,8.1,-,N/A,,Scattered Clouds,230,2013-06-30 15:20:00
6:50 PM,75.2,62.6,65,29.68,6.2,SW,9.2,-,N/A,,Scattered Clouds,230,2013-06-30 15:50:00
7:20 PM,73.4,62.6,69,29.68,6.2,SW,8.1,-,N/A,,Scattered Clouds,230,2013-06-30 16:20:00
7:50 PM,73.4,64.4,73,29.71,6.2,SW,8.1,-,N/A,,Scattered Clouds,230,2013-06-30 16:50:00
8:20 PM,73.4,64.4,73,29.71,6.2,SW,8.1,-,N/A,,Scattered Clouds,220,2013-06-30 17:20:00
8:50 PM,73.4,64.4,73,29.71,6.2,SW,8.1,-,N/A,,Scattered Clouds,230,2013-06-30 17:50:00
9:00 PM,73,64,66,29.72,6,SW,8.1,,,,Partly Cloudy,230,2013-06-30 18:00:00
9:20 PM,73.4,64.4,73,29.74,6.2,SW,8.1,-,N/A,,Mostly Cloudy,230,2013-06-30 18:20:00
9:50 PM,73.4,64.4,73,29.74,6.2,WSW,6.9,-,N/A,Rain,Light Rain Showers,240,2013-06-30 18:50:00
10:17 PM,73.4,64.4,73,29.74,6.2,WSW,9.2,-,N/A,Rain-Thunderstorm,Light Thunderstorms and Rain,240,2013-06-30 19:17:00
10:20 PM,73.4,62.6,69,29.74,6.2,WSW,10.4,-,N/A,Rain-Thunderstorm,Light Thunderstorms and Rain,240,2013-06-30 19:20:00
10:38 PM,71.6,62.6,73,29.74,6.2,WNW,9.2,-,N/A,Rain-Thunderstorm,Thunderstorms and Rain,290,2013-06-30 19:38:00
10:50 PM,69.8,60.8,73,29.74,6.2,West,4.6,-,N/A,Rain-Thunderstorm,Light Thunderstorms and Rain,280,2013-06-30 19:50:00
11:03 PM,69.8,62.6,78,29.74,6.2,WSW,3.5,-,N/A,Rain,Light Rain Showers,240,2013-06-30 20:03:00
11:20 PM,69.8,62.6,78,29.74,6.2,SW,5.8,-,N/A,Rain,Light Rain Showers,220,2013-06-30 20:20:00
11:41 PM,69.8,62.6,78,29.74,6.2,SW,5.8,-,N/A,,Mostly Cloudy,220,2013-06-30 20:41:00
11:50 PM,69.8,62.6,78,29.74,6.2,SSW,4.6,-,N/A,,Mostly Cloudy,200,2013-06-30 20:50:00